SCP
0 0 0 0 0 0 0 0 0 0 0 0 0 0 0 0 0 0 0 0 0 0 0 0 0 1 1 1 1 1 1 1 1 1 1 1 0 0 0 0 0 0 0 0
0 0 0 0 0 0 0 0 0 0 0 0 0 0 0 0 0 0 0 0 0 0 0 0 0 1 1 1 1 1 1 1 1 1 1 1 1 0 0 0 0 0 0 0
0 0 0 0 0 0 0 0 0 0 0 0 0 0 0 0 0 0 0 0 0 0 0 0 1 1 1 1 1 1 1 1 1 1 1 1 1 1 1 1 1 0 0 0
0 0 0 0 0 0 0 0 0 0 0 0 0 0 0 0 0 0 0 0 0 0 0 0 1 1 1 1 1 1 1 1 1 1 1 1 1 1 1 1 0 0 0 0
0 0 0 0 0 0 0 0 0 0 0 0 0 0 0 0 0 0 0 0 0 0 0 0 1 1 1 1 1 1 1 1 1 1 1 1 1 1 1 1 0 0 0 0
0 0 0 0 0 0 0 0 0 0 0 0 0 0 0 0 0 0 0 0 0 0 0 0 0 1 1 1 1 1 1 1 1 1 1 1 1 1 1 1 0 0 0 0
0 0 0 0 0 0 0 0 0 0 0 0 0 0 0 0 0 0 0 0 0 0 0 0 0 0 0 1 1 1 1 1 1 1 1 1 1 1 1 0 0 0 0 0
0 0 0 0 0 0 0 0 0 0 0 0 0 0 0 0 0 0 0 0 0 0 0 0 0 0 0 1 1 1 1 1 1 1 1 1 1 1 0 0 0 0 0 0
0 0 0 0 0 0 0 0 0 0 0 0 0 0 0 0 0 0 0 0 0 0 0 0 0 0 0 0 1 1 1 1 1 1 1 1 1 1 0 0 0 0 0 0
0 0 0 0 0 0 0 0 0 0 0 0 0 0 0 0 0 0 0 0 0 0 0 0 0 0 0 0 0 0 1 1 1 1 1 1 0 0 0 0 0 0 0 0
0 0 0 0 0 0 0 0 0 0 0 0 0 0 0 0 0 0 0 0 0 0 0 0 0 0 0 0 0 0 0 1 1 1 1 1 0 0 0 0 0 0 0 0
0 0 0 0 0 0 0 0 0 0 0 0 0 0 0 0 0 0 0 0 0 0 0 0 0 0 0 0 0 0 0 0 0 1 1 1 0 0 0 0 0 0 0 0
0 0 0 0 0 0 0 0 0 0 0 0 0 0 0 0 0 0 0 0 0 0 0 0 0 0 0 0 0 0 0 0 0 0 0 0 0 0 0 0 0 0 0 0
0 0 0 0 0 0 0 0 0 0 0 0 0 0 0 0 0 0 0 0 0 0 0 0 0 0 0 0 0 0 0 0 0 0 0 0 0 0 0 0 0 0 0 0
0 0 0 0 0 0 0 0 0 0 0 0 0 0 0 0 0 0 0 0 0 0 0 0 0 0 0 0 0 0 0 0 0 0 0 0 0 0 0 0 0 0 0 0
0 0 0 0 0 0 0 0 0 0 0 0 0 0 0 0 0 0 0 0 0 0 0 0 0 0 0 0 0 0 0 0 0 0 0 0 0 0 0 0 0 0 0 0
0 0 0 0 0 0 0 0 0 0 0 0 0 0 0 0 0 0 0 0 0 0 0 0 0 0 0 0 0 0 0 0 0 0 0 0 0 0 0 0 0 0 0 0
0 0 0 0 0 0 0 0 0 0 0 0 0 0 0 0 0 0 0 0 0 0 0 0 0 0 0 0 0 0 0 0 0 0 0 0 0 0 0 0 0 0 0 0
0 0 0 0 0 0 0 0 0 0 0 0 0 0 0 0 0 0 0 0 0 0 0 0 0 0 0 0 0 0 0 0 0 0 0 0 0 0 0 0 0 0 0 0
0 0 0 0 0 0 0 0 0 0 0 0 0 0 0 0 0 0 0 0 0 0 0 0 0 0 0 0 0 0 0 0 0 0 0 0 0 0 0 0 0 0 0 0
0 0 0 0 0 0 0 0 0 0 0 0 0 0 0 0 0 0 0 0 0 0 0 0 0 0 0 0 0 0 0 0 0 0 0 0 0 0 0 0 0 0 0 0
0 0 0 0 0 0 0 0 0 0 0 0 0 0 0 0 0 0 0 0 0 0 0 0 0 0 0 0 0 0 0 0 0 0 0 0 0 0 0 0 0 0 0 0
0 0 0 0 0 0 0 0 0 0 0 0 0 0 0 0 0 0 0 0 0 0 0 0 0 0 0 0 0 0 0 0 0 0 0 0 0 0 0 0 0 0 0 0
0 0 0 0 0 0 0 0 0 0 0 0 0 0 0 0 0 0 0 0 0 0 0 0 0 0 0 0 0 0 0 0 0 0 0 0 0 0 0 0 0 0 0 0
0 0 0 0 0 0 0 0 0 0 0 0 0 0 0 0 0 0 0 0 0 0 0 0 0 0 0 0 0 0 0 0 0 0 0 0 0 0 0 0 0 0 0 0
0 0 0 0 0 0 0 0 0 0 0 0 0 0 0 0 0 0 0 0 0 0 0 0 0 0 0 0 0 0 0 0 0 0 0 0 0 0 0 0 0 0 0 0
Wind_Speed
9 11 12 11 11 7 6 7 7 6 3 6 7 6 5 5 6 6 6 6 7 6 6 6 6 6 6 6 6 6 6 5 5 4 4 3 3 2 2 1 1 1 2 2
10 13 10 7 7 9 10 10 8 6 4 6 6 7 5 5 5 5 5 6 6 6 6 6 6 6 6 6 6 6 6 6 6 4 3 2 2 2 2 1 1 1 1 1
13 7 7 9 10 12 12 12 9 6 4 7 8 10 9 6 6 5 5 5 5 5 5 6 7 7 6 6 6 5 5 5 5 4 4 3 3 2 2 2 1 1 1 1
11 7 8 11 12 12 12 9 8 8 9 7 8 9 7 7 7 6 5 5 5 5 5 6 7 6 6 6 5 5 5 5 4 5 4 4 3 2 2 1 1 1 1 1
9 9 11 12 11 11 8 5 8 9 10 10 9 10 5 7 7 6 5 4 4 4 4 5 5 5 5 5 5 5 5 4 4 4 4 4 3 2 2 2 2 2 1 1
9 7 9 8 7 8 5 6 8 9 10 13 11 10 6 4 4 3 4 4 3 4 4 4 4 4 4 5 5 6 5 4 4 4 3 3 3 2 2 2 2 2 1 1
11 11 9 7 8 9 11 10 8 10 10 10 7 9 4 2 1 1 2 3 4 4 5 5 5 5 5 5 5 5 6 4 4 4 3 3 2 2 2 2 2 2 1 1
11 11 11 10 11 9 13 14 10 8 9 7 8 9 3 3 3 2 2 3 4 5 5 5 5 5 5 5 5 5 5 4 4 3 3 2 2 1 1 1 1 1 1 1
8 8 8 8 9 10 12 13 11 12 11 9 7 5 4 5 5 4 4 4 5 5 5 5 5 5 4 5 4 4 5 5 4 3 3 3 2 1 1 1 1 1 1 1
7 7 7 6 7 9 11 9 8 11 10 11 10 10 6 7 6 6 5 5 5 5 6 5 5 4 4 4 4 4 5 4 4 4 3 2 2 2 2 1 1 0 1 1
8 8 8 9 10 10 10 12 11 10 11 11 10 5 1 5 5 6 5 5 6 6 6 6 5 4 4 4 4 4 4 5 4 4 3 3 2 2 2 1 1 1 1 1
6 7 8 9 6 6 10 11 12 11 10 11 11 4 3 2 3 4 4 4 5 5 5 5 5 4 4 4 3 3 4 4 4 4 4 3 3 2 2 2 1 1 1 1
5 6 8 9 9 8 9 10 12 12 10 10 11 5 4 3 3 3 3 3 4 5 5 5 4 4 3 3 3 3 3 4 4 5 5 4 3 2 1 1 1 1 1 1
6 7 9 10 6 6 9 10 11 13 12 11 11 7 4 4 4 3 3 3 4 5 5 4 4 4 3 3 3 3 3 4 4 4 4 4 3 2 1 1 0 1 1 1
6 8 8 8 7 8 9 10 11 13 13 12 9 9 7 4 4 4 4 4 4 5 5 4 4 4 3 3 3 3 3 3 4 4 3 3 3 2 1 0 0 1 1 1
4 6 6 8 8 8 10 11 11 11 10 11 10 8 3 2 3 4 4 4 5 4 5 5 4 3 4 4 4 3 3 3 4 4 4 3 3 2 1 1 1 0 1 1
5 6 8 8 8 10 11 9 9 8 8 8 9 6 3 3 4 4 5 5 5 4 4 4 4 4 4 4 4 4 4 4 4 4 4 4 3 2 2 2 1 0 1 1
6 7 6 7 8 11 3 1 5 7 6 5 5 4 3 3 3 4 4 4 4 3 4 4 3 3 3 4 4 4 4 4 4 4 4 4 4 3 3 2 1 1 1 1
7 8 7 7 9 8 4 3 4 6 6 4 5 3 2 2 3 4 2 1 2 3 3 3 3 3 3 4 4 4 4 4 4 4 3 3 3 3 3 2 1 1 1 2
7 8 8 8 9 9 3 2 2 5 6 2 3 4 3 4 6 2 0 1 2 2 2 2 2 2 3 4 4 4 4 4 4 4 3 3 3 3 3 2 2 2 2 2
8 8 10 10 9 4 1 2 3 7 1 0 2 3 4 5 4 4 2 2 1 2 2 2 3 2 3 3 4 4 4 4 3 3 3 3 3 3 3 3 2 3 3 2
6 6 8 8 9 5 2 2 3 2 2 2 2 2 3 3 3 2 2 1 1 2 2 3 3 2 3 4 4 4 4 3 3 3 3 4 3 3 3 3 3 3 3 3
4 3 2 2 1 2 1 1 1 1 2 3 3 3 3 3 3 2 2 1 1 2 2 2 3 3 3 4 4 4 3 3 4 4 4 3 4 4 3 4 4 4 4 3
2 2 2 2 2 1 1 1 1 2 3 2 3 3 3 2 2 2 2 2 2 2 3 3 3 3 3 4 4 4 3 4 4 4 4 4 4 4 4 4 4 3 3 3
1 3 3 4 2 2 3 2 2 3 3 2 2 2 2 2 2 2 2 2 2 2 3 3 4 4 4 4 4 4 4 4 4 4 4 4 4 4 4 4 2 3 2 2
3 4 5 3 2 3 2 2 3 2 2 2 2 2 2 2 2 2 2 2 2 3 3 3 4 4 4 4 4 4 4 4 4 4 4 4 4 4 4 4 3 1 2 2
Wind_Direction
188 209 210 207 222 246 230 226 220 217 202 237 234 236 224 217 223 224 221 214 212 207 195 183 182 180 179 178 180 184 191 186 193 194 203 201 199 206 207 203 172 236 274 271
195 215 214 209 214 225 224 224 223 212 199 243 242 241 225 227 232 241 236 223 218 213 191 182 180 179 180 179 181 182 186 185 197 192 203 210 219 217 199 191 140 223 263 282
215 199 189 203 204 215 220 229 232 229 218 228 243 235 216 208 217 225 232 229 218 214 200 188 186 186 184 183 184 182 183 183 191 193 195 187 188 204 181 183 170 181 217 260
224 202 197 211 214 221 227 224 231 228 234 228 230 255 208 202 205 213 221 222 217 209 203 195 188 188 188 185 175 172 176 179 183 192 198 198 198 205 206 207 173 182 186 224
210 201 209 218 219 222 242 213 223 229 240 252 232 254 224 195 215 206 207 214 212 202 196 191 186 184 183 177 166 160 164 169 173 191 191 206 216 219 190 181 167 217 184 208
224 206 222 231 224 219 213 202 212 226 238 242 236 247 241 197 220 206 196 195 190 184 170 165 162 158 164 163 158 154 158 161 167 176 181 201 212 218 201 198 186 211 196 200
209 205 206 213 199 194 207 216 218 217 221 235 209 237 244 143 172 227 203 180 166 166 158 158 155 153 156 160 159 157 154 156 160 164 167 178 197 206 207 227 205 237 223 217
210 202 194 204 219 209 209 226 239 244 239 225 199 232 194 134 142 159 165 162 159 163 158 155 152 154 157 156 160 158 154 157 155 155 158 163 181 211 199 210 272 245 269 278
220 207 176 202 222 229 217 226 248 263 266 263 225 208 191 188 194 185 172 171 167 163 162 156 150 153 155 153 152 154 154 155 157 155 155 154 143 139 155 168 234 277 313 286
235 225 194 188 207 219 239 234 230 241 250 248 236 226 221 197 205 193 186 183 172 165 160 152 150 147 147 147 147 153 158 159 158 156 158 140 142 152 163 167 112 29 315 305
233 231 205 201 214 214 207 217 228 239 249 258 253 234 166 197 203 201 192 184 175 172 165 154 149 145 144 149 154 156 158 161 160 152 145 141 144 153 165 165 159 165 262 260
222 240 227 219 229 253 231 229 225 236 238 246 263 254 98 163 185 196 190 176 168 172 164 153 151 150 152 154 157 160 167 168 167 160 154 149 149 148 164 166 177 179 216 264
201 225 225 212 205 209 225 233 236 242 249 247 251 236 127 144 164 177 187 176 166 170 164 161 160 162 163 161 164 163 172 171 170 164 159 152 151 151 166 177 198 240 256 285
227 229 243 250 247 224 226 228 234 240 244 247 249 253 202 192 193 190 189 183 177 174 174 176 176 176 173 173 173 175 170 168 164 163 157 148 152 165 179 198 219 256 268 267
236 233 240 255 261 246 244 241 236 239 252 258 259 255 255 229 219 211 195 187 190 187 186 191 197 189 182 176 180 185 180 170 166 166 163 156 159 169 163 159 238 283 277 272
228 240 236 244 241 245 248 247 242 243 251 253 256 258 252 230 209 205 205 203 208 210 209 207 208 204 199 192 189 185 189 177 173 175 172 166 163 168 168 182 204 245 306 313
213 226 234 239 237 240 240 244 243 242 247 256 255 255 225 233 227 223 218 220 224 223 221 221 222 218 211 199 196 193 182 179 182 184 186 176 173 175 183 204 204 246 304 304
225 228 237 239 233 235 224 264 253 243 243 254 266 267 254 269 259 253 239 234 232 232 233 231 229 220 204 196 197 194 185 185 188 194 196 186 183 182 185 197 211 250 282 298
223 225 235 237 236 242 216 214 249 241 242 260 263 266 278 317 271 231 213 261 254 246 238 232 227 214 198 197 193 188 192 194 191 193 196 194 191 185 188 196 215 248 269 276
202 223 232 233 240 243 230 164 254 249 236 225 252 253 262 267 258 237 37 289 262 245 227 212 208 203 195 193 192 193 195 201 202 199 198 198 200 199 198 201 216 230 251 258
199 212 226 233 240 239 76 120 219 232 265 58 257 261 264 262 288 321 315 279 240 218 200 190 193 199 193 184 189 201 201 212 215 209 201 198 204 212 211 207 214 231 244 254
225 221 220 231 237 224 117 195 228 356 359 305 290 279 276 281 279 280 284 266 213 203 193 191 194 198 192 183 192 207 210 217 216 212 208 205 210 221 202 206 219 228 241 235
247 280 267 260 285 57 134 234 21 337 313 310 315 308 282 275 276 280 270 258 223 212 201 197 198 202 197 192 204 214 217 216 209 211 212 212 211 216 214 217 218 223 229 242
186 247 226 215 181 181 270 270 328 316 307 309 314 309 291 274 278 276 264 255 235 216 214 212 209 213 206 203 209 216 211 211 208 210 213 213 213 213 212 228 228 233 239 241
244 209 218 225 225 229 226 266 307 321 321 315 314 317 311 301 289 292 281 272 256 233 221 220 223 226 220 208 207 208 204 206 211 212 216 218 215 217 222 225 245 256 262 297
223 228 242 257 243 250 254 269 284 285 290 302 307 317 322 313 310 306 302 290 260 239 227 228 229 229 221 206 202 202 203 206 209 212 216 219 218 215 222 217 210 205 244 217